�������l�o���
Date,Time,MP-1(��Sv/h),MP-2(��Sv/h),MP-3(��Sv/h),MP-4(��Sv/h),MP-5(��Sv/h),MP-6(��Sv/h),MP-7(��Sv/h),MP-8(��Sv/h),����,����(m/s),���J
2023/10/28,00:00,0.535,0.810,0.499,1.019,0.735,0.323,0.576,0.533,���k��,2.9,��
2023/10/28,00:10,0.535,0.805,0.498,1.022,0.734,0.322,0.576,0.535,�k��,2.9,��
2023/10/28,00:20,0.536,0.808,0.498,1.018,0.734,0.322,0.577,0.534,�k��,3.5,��
2023/10/28,00:30,0.535,0.808,0.499,1.020,0.733,0.322,0.578,0.535,�k��,3.5,��
2023/10/28,00:40,0.534,0.809,0.499,1.020,0.733,0.322,0.577,0.534,�k��,3.9,��
2023/10/28,00:50,0.533,0.808,0.500,1.020,0.732,0.321,0.576,0.534,�k��,4.6,��
2023/10/28,01:00,0.535,0.809,0.501,1.018,0.733,0.322,0.576,0.534,�k��,3.3,��
2023/10/28,01:10,0.533,0.807,0.498,1.018,0.733,0.322,0.576,0.533,�k�k��,4.1,��
2023/10/28,01:20,0.533,0.809,0.498,1.021,0.733,0.322,0.577,0.536,�k�k��,4.7,��
2023/10/28,01:30,0.533,0.810,0.498,1.020,0.734,0.321,0.578,0.535,�k�k��,4.7,��
2023/10/28,01:40,0.534,0.809,0.499,1.020,0.733,0.323,0.577,0.535,�k�k��,5.1,��
2023/10/28,01:50,0.534,0.808,0.499,1.020,0.733,0.321,0.576,0.535,�k�k��,4.4,��
2023/10/28,02:00,0.535,0.808,0.499,1.019,0.735,0.322,0.576,0.535,�k�k��,4.7,��
2023/10/28,02:10,0.535,0.809,0.499,1.021,0.734,0.321,0.578,0.535,�k�k��,4.3,��
2023/10/28,02:20,0.533,0.806,0.498,1.018,0.733,0.322,0.579,0.535,�k,4.5,��
2023/10/28,02:30,0.533,0.807,0.498,1.017,0.732,0.321,0.575,0.534,�k�k��,4.8,��
2023/10/28,02:40,0.534,0.807,0.500,1.019,0.734,0.322,0.577,0.534,�k�k��,4.3,��
2023/10/28,02:50,0.535,0.808,0.498,1.019,0.735,0.322,0.574,0.535,�k�k��,3.8,��
2023/10/28,03:00,0.533,0.809,0.500,1.020,0.733,0.321,0.576,0.536,�k�k��,3.8,��
2023/10/28,03:10,0.535,0.807,0.498,1.018,0.734,0.321,0.577,0.535,�k�k��,3.9,��
2023/10/28,03:20,0.534,0.807,0.498,1.019,0.735,0.322,0.578,0.536,�k�k��,4.2,��
2023/10/28,03:30,0.534,0.809,0.499,1.018,0.733,0.321,0.576,0.536,�k,4.4,��
2023/10/28,03:40,0.532,0.807,0.498,1.020,0.733,0.323,0.578,0.534,�k,5.1,��
2023/10/28,03:50,0.534,0.808,0.499,1.020,0.734,0.322,0.576,0.536,�k,4.7,��
2023/10/28,04:00,0.535,0.807,0.499,1.020,0.731,0.321,0.577,0.535,�k�k��,5.3,��
2023/10/28,04:10,0.533,0.808,0.498,1.020,0.734,0.321,0.575,0.534,�k�k��,5.5,��
2023/10/28,04:20,0.535,0.808,0.499,1.019,0.733,0.322,0.576,0.536,�k�k��,5.2,��
2023/10/28,04:30,0.534,0.808,0.499,1.018,0.732,0.321,0.576,0.535,�k�k��,6.4,��
2023/10/28,04:40,0.534,0.808,0.498,1.019,0.733,0.321,0.577,0.535,�k�k��,6.3,��
2023/10/28,04:50,0.533,0.806,0.500,1.020,0.732,0.322,0.577,0.537,�k�k��,5.9,��
2023/10/28,05:00,0.534,0.808,0.499,1.021,0.732,0.322,0.577,0.535,�k�k��,6.0,��
2023/10/28,05:10,0.534,0.807,0.500,1.020,0.734,0.322,0.576,0.535,�k�k��,5.8,��
2023/10/28,05:20,0.532,0.808,0.500,1.018,0.734,0.322,0.576,0.534,�k��,6.4,��
2023/10/28,05:30,0.534,0.808,0.499,1.022,0.732,0.321,0.578,0.534,�k��,6.3,��
2023/10/28,05:40,0.535,0.807,0.500,1.019,0.733,0.321,0.579,0.535,�k��,6.4,��
2023/10/28,05:50,0.535,0.807,0.498,1.017,0.733,0.322,0.576,0.535,�k��,5.6,��
2023/10/28,06:00,0.534,0.806,0.498,1.019,0.733,0.323,0.577,0.534,�k�k��,5.0,��
2023/10/28,06:10,0.533,0.806,0.499,1.020,0.731,0.321,0.577,0.536,�k�k��,4.6,��
2023/10/28,06:20,0.532,0.808,0.498,1.018,0.733,0.321,0.578,0.535,�k�k��,4.9,��
2023/10/28,06:30,0.534,0.805,0.498,1.020,0.735,0.321,0.578,0.533,�k�k��,4.7,��
2023/10/28,06:40,0.534,0.807,0.497,1.020,0.733,0.320,0.577,0.535,�k��,5.2,��
2023/10/28,06:50,0.534,0.807,0.498,1.021,0.734,0.322,0.577,0.534,�k��,5.0,��
2023/10/28,07:00,0.534,0.807,0.499,1.017,0.731,0.321,0.578,0.536,�k�k��,4.6,��
2023/10/28,07:10,0.534,0.807,0.500,1.019,0.734,0.322,0.578,0.534,�k��,5.1,��
2023/10/28,07:20,0.533,0.805,0.499,1.022,0.731,0.321,0.577,0.536,�k�k��,5.3,��
2023/10/28,07:30,0.532,0.808,0.499,1.022,0.732,0.321,0.577,0.536,�k��,5.1,��
2023/10/28,07:40,0.533,0.806,0.497,1.019,0.732,0.322,0.577,0.535,�k�k��,4.6,��
2023/10/28,07:50,0.532,0.809,0.499,1.019,0.731,0.322,0.579,0.535,�k�k��,5.1,��
2023/10/28,08:00,0.533,0.808,0.498,1.019,0.733,0.322,0.579,0.536,�k�k��,5.6,��
2023/10/28,08:10,0.534,0.810,0.501,1.020,0.734,0.321,0.579,0.535,�k�k��,6.1,��
2023/10/28,08:20,0.535,0.809,0.499,1.021,0.733,0.322,0.578,0.536,�k��,5.1,��
2023/10/28,08:30,0.535,0.808,0.500,1.019,0.732,0.323,0.577,0.535,�k��,2.8,��
2023/10/28,08:40,0.534,0.808,0.500,1.022,0.734,0.322,0.576,0.537,�k��,3.1,��
2023/10/28,08:50,0.536,0.809,0.499,1.022,0.733,0.323,0.577,0.535,�k��,4.1,��
2023/10/28,09:00,0.536,0.808,0.500,1.020,0.737,0.323,0.577,0.536,�k��,3.4,��
2023/10/28,09:10,0.535,0.805,0.500,1.019,0.735,0.322,0.576,0.535,�k��,3.5,��
2023/10/28,09:20,0.535,0.807,0.500,1.022,0.735,0.322,0.577,0.536,�k��,3.9,��
2023/10/28,09:30,0.535,0.806,0.501,1.021,0.735,0.322,0.577,0.536,�k�k��,3.5,��
2023/10/28,09:40,0.535,0.807,0.502,1.021,0.735,0.322,0.578,0.535,�k��,2.6,��
2023/10/28,09:50,0.534,0.808,0.500,1.018,0.733,0.322,0.577,0.536,�k�k��,2.3,��
2023/10/28,10:00,0.533,0.807,0.500,1.020,0.733,0.321,0.580,0.536,�k�k��,2.8,��
2023/10/28,10:10,0.534,0.809,0.500,1.019,0.733,0.321,0.578,0.535,�k,3.0,��
2023/10/28,10:20,0.533,0.809,0.499,1.020,0.732,0.321,0.578,0.534,�k,3.0,��
2023/10/28,10:30,0.534,0.808,0.499,1.022,0.733,0.321,0.578,0.535,�k�k��,3.7,��
2023/10/28,10:40,0.536,0.808,0.500,1.021,0.732,0.320,0.579,0.535,�k�k��,3.7,��
2023/10/28,10:50,0.534,0.809,0.500,1.022,0.733,0.322,0.578,0.533,�k�k��,3.2,��
2023/10/28,11:00,0.534,0.810,0.498,1.020,0.733,0.322,0.579,0.535,�k�k��,3.6,��
2023/10/28,11:10,0.534,0.807,0.500,1.022,0.735,0.321,0.578,0.532,�k,4.7,��
2023/10/28,11:20,0.535,0.806,0.500,1.023,0.736,0.322,0.580,0.534,�k,4.8,��
2023/10/28,11:30,0.532,0.810,0.500,1.020,0.733,0.321,0.578,0.537,�k�k��,4.9,��
2023/10/28,11:40,0.533,0.810,0.500,1.021,0.736,0.321,0.578,0.535,�k�k��,5.1,��
2023/10/28,11:50,0.535,0.808,0.500,1.021,0.735,0.321,0.576,0.534,�k�k��,6.0,��
2023/10/28,12:00,0.534,0.809,0.500,1.022,0.734,0.321,0.578,0.535,�k�k��,5.7,��
2023/10/28,12:10,0.533,0.809,0.500,1.022,0.735,0.321,0.577,0.534,�k�k��,4.8,��
2023/10/28,12:20,0.534,0.808,0.498,1.020,0.735,0.322,0.577,0.535,�k�k��,5.0,��
2023/10/28,12:30,0.535,0.809,0.499,1.022,0.737,0.322,0.577,0.535,�k�k��,5.2,��
2023/10/28,12:40,0.535,0.810,0.499,1.021,0.735,0.322,0.577,0.535,�k�k��,4.9,��
2023/10/28,12:50,0.534,0.810,0.500,1.021,0.735,0.322,0.576,0.535,�k�k��,5.3,��
2023/10/28,13:00,0.535,0.808,0.500,1.020,0.736,0.322,0.577,0.534,�k�k��,5.2,��
2023/10/28,13:10,0.535,0.810,0.499,1.021,0.735,0.321,0.577,0.535,�k�k��,5.3,��
2023/10/28,13:20,0.534,0.810,0.500,1.021,0.735,0.321,0.577,0.534,�k�k��,5.6,��
2023/10/28,13:30,0.535,0.811,0.499,1.020,0.737,0.321,0.576,0.535,�k�k��,4.9,��
2023/10/28,13:40,0.535,0.809,0.500,1.020,0.735,0.321,0.577,0.534,�k��,4.6,��
2023/10/28,13:50,0.534,0.809,0.501,1.019,0.736,0.321,0.578,0.534,�k�k��,4.4,��
2023/10/28,14:00,0.533,0.809,0.499,1.021,0.734,0.321,0.578,0.534,�k�k��,4.4,��
2023/10/28,14:10,0.534,0.810,0.499,1.020,0.736,0.321,0.576,0.534,�k�k��,4.3,��
2023/10/28,14:20,0.534,0.808,0.498,1.022,0.734,0.322,0.577,0.535,�k,4.8,��
2023/10/28,14:30,0.533,0.809,0.499,1.022,0.736,0.321,0.577,0.535,�k�k��,3.4,��
2023/10/28,14:40,0.534,0.810,0.498,1.021,0.735,0.322,0.576,0.533,�k�k��,2.9,��
2023/10/28,14:50,0.533,0.808,0.499,1.022,0.735,0.322,0.577,0.535,�k,2.8,��
2023/10/28,15:00,0.534,0.810,0.499,1.022,0.736,0.322,0.577,0.535,�k,2.5,��
2023/10/28,15:10,0.535,0.812,0.501,1.020,0.738,0.323,0.578,0.536,�k�k��,2.6,��
2023/10/28,15:20,0.535,0.813,0.501,1.020,0.737,0.321,0.576,0.536,�k�k��,2.5,��
2023/10/28,15:30,0.536,0.813,0.501,1.021,0.737,0.322,0.577,0.536,�k��,1.9,��
2023/10/28,15:40,0.535,0.812,0.502,1.023,0.738,0.322,0.577,0.538,�k�k��,2.0,�L
2023/10/28,15:50,0.536,0.813,0.503,1.020,0.735,0.322,0.577,0.535,�k�k��,2.5,�L
2023/10/28,16:00,0.536,0.814,0.501,1.023,0.737,0.322,0.576,0.537,�k�k��,3.5,��
2023/10/28,16:10,0.537,0.813,0.501,1.021,0.739,0.323,0.577,0.537,�k�k��,3.5,��
2023/10/28,16:20,0.537,0.812,0.501,1.023,0.740,0.323,0.578,0.538,�k�k��,3.7,��
2023/10/28,16:30,0.535,0.809,0.501,1.021,0.739,0.323,0.578,0.537,�k�k��,4.3,��
2023/10/28,16:40,0.535,0.811,0.501,1.022,0.737,0.323,0.577,0.536,�k�k��,5.1,��
2023/10/28,16:50,0.535,0.813,0.502,1.020,0.737,0.322,0.577,0.537,�k�k��,4.5,��
2023/10/28,17:00,0.535,0.812,0.501,1.020,0.738,0.322,0.578,0.537,�k��,3.7,��
2023/10/28,17:10,0.536,0.814,0.502,1.021,0.739,0.322,0.578,0.535,�k��,3.6,��
2023/10/28,17:20,0.535,0.813,0.502,1.019,0.740,0.323,0.577,0.538,�k��,4.1,��
2023/10/28,17:30,0.535,0.812,0.502,1.018,0.740,0.322,0.578,0.538,�k��,3.8,��
2023/10/28,17:40,0.536,0.811,0.500,1.021,0.737,0.322,0.579,0.535,�k��,4.4,��
2023/10/28,17:50,0.537,0.812,0.499,1.022,0.738,0.323,0.577,0.538,�k��,4.1,��
2023/10/28,18:00,0.536,0.813,0.501,1.021,0.738,0.324,0.579,0.537,�k��,4.6,��
2023/10/28,18:10,0.536,0.813,0.500,1.020,0.737,0.323,0.578,0.538,�k��,5.1,��
2023/10/28,18:20,0.536,0.811,0.503,1.023,0.739,0.324,0.577,0.536,�k��,4.5,��
2023/10/28,18:30,0.536,0.812,0.500,1.021,0.737,0.323,0.580,0.535,�k��,4.6,��
2023/10/28,18:40,0.536,0.812,0.501,1.022,0.737,0.322,0.578,0.538,���k��,5.1,��
2023/10/28,18:50,0.537,0.812,0.503,1.022,0.737,0.323,0.577,0.537,���k��,5.0,��
2023/10/28,19:00,0.537,0.814,0.501,1.021,0.738,0.322,0.578,0.535,���k��,5.0,��
2023/10/28,19:10,0.537,0.814,0.500,1.021,0.739,0.322,0.578,0.536,���k��,4.0,��
2023/10/28,19:20,0.536,0.815,0.501,1.023,0.738,0.323,0.580,0.537,���k��,3.6,��
2023/10/28,19:30,0.536,0.813,0.501,1.024,0.739,0.323,0.579,0.537,���k��,5.0,��
2023/10/28,19:40,0.537,0.814,0.501,1.021,0.736,0.322,0.579,0.537,�k��,5.5,��
2023/10/28,19:50,0.536,0.812,0.502,1.022,0.738,0.323,0.579,0.536,���k��,4.6,��
2023/10/28,20:00,0.537,0.811,0.501,1.021,0.739,0.324,0.579,0.537,���k��,5.8,��
2023/10/28,20:10,0.537,0.813,0.501,1.023,0.738,0.323,0.577,0.538,�k��,6.4,��
2023/10/28,20:20,0.536,0.812,0.500,1.022,0.737,0.323,0.577,0.537,���k��,6.1,��
2023/10/28,20:30,0.538,0.812,0.501,1.021,0.739,0.324,0.579,0.536,���k��,5.1,��
2023/10/28,20:40,0.537,0.813,0.502,1.022,0.737,0.323,0.577,0.537,���k��,5.4,��
2023/10/28,20:50,0.537,0.812,0.501,1.021,0.737,0.323,0.578,0.537,��,4.8,��
2023/10/28,21:00,0.537,0.812,0.502,1.021,0.738,0.323,0.578,0.537,���k��,5.5,��
2023/10/28,21:10,0.537,0.810,0.501,1.024,0.738,0.323,0.578,0.534,��,5.5,��
2023/10/28,21:20,0.537,0.811,0.503,1.021,0.736,0.322,0.578,0.537,��,4.9,��
2023/10/28,21:30,0.538,0.812,0.501,1.023,0.739,0.323,0.580,0.537,��,5.8,��
2023/10/28,21:40,0.537,0.813,0.501,1.022,0.739,0.321,0.578,0.535,���k��,6.1,��
2023/10/28,21:50,0.537,0.814,0.501,1.022,0.739,0.323,0.579,0.535,���k��,5.4,��
2023/10/28,22:00,0.537,0.812,0.502,1.022,0.738,0.324,0.577,0.536,���k��,4.3,��
2023/10/28,22:10,0.537,0.812,0.502,1.023,0.737,0.323,0.580,0.537,���k��,5.1,��
2023/10/28,22:20,0.538,0.814,0.502,1.023,0.738,0.323,0.579,0.538,���k��,5.8,��
2023/10/28,22:30,0.538,0.812,0.501,1.021,0.738,0.322,0.578,0.536,���k��,5.8,��
2023/10/28,22:40,0.537,0.812,0.501,1.020,0.738,0.324,0.580,0.536,�k��,6.7,��
2023/10/28,22:50,0.537,0.812,0.502,1.023,0.737,0.323,0.579,0.536,�k��,4.6,��
2023/10/28,23:00,0.535,0.812,0.502,1.022,0.737,0.323,0.579,0.538,�k��,5.1,��
2023/10/28,23:10,0.537,0.813,0.501,1.022,0.738,0.323,0.579,0.536,�k��,6.5,��
2023/10/28,23:20,0.537,0.811,0.503,1.022,0.736,0.322,0.578,0.538,�k��,6.8,��
2023/10/28,23:30,0.536,0.811,0.502,1.021,0.736,0.323,0.579,0.537,�k��,5.9,��
2023/10/28,23:40,0.536,0.813,0.501,1.020,0.737,0.323,0.578,0.536,�k��,5.6,��
2023/10/28,23:50,0.536,0.812,0.501,1.020,0.738,0.323,0.578,0.538,�k��,5.7,��
